Location: Unspecified
(0.0000°N, 0.0000°E)
Time: 12:30:10
(UTC+00:00)

Envisat - Pass Details

Date: 30 November 2021
Orbit: 764 x 766 km, 98.2° (Epoch: 07 December)

Event Time Altitude Azimuth Distance (km) Brightness Sun altitude
Rises 04:52:53 0° 3° (N) 3,212 6.0 -12.9°
Reaches altitude 10° 04:55:13 10° 359° (N) 2,289 5.2 -12.4°
Maximum altitude 05:00:07 54° 282° (WNW) 924 3.1 -11.3°
Drops below altitude 10° 05:05:04 10° 205° (SSW) 2,300 5.5 -10.1°
Sets 05:07:25 0° 201° (SSW) 3,228 6.3 -9.6°
